Stündliche Wetter Holovky

Heute, 25 Juni, Freitag

Zeit Temperatur Niederschläge Wind Luftdruck Luftfeuchtigkeit
00:00 +25°C° 0 mm 2 m/S 753 mmHg 80%
01:00 +24°C° 0 mm 3 m/S 753 mmHg 82%
02:00 +24°C° 0 mm 3 m/S 753 mmHg 84%
03:00 +24°C° 0 mm 3 m/S 753 mmHg 84%
04:00 +24°C° 0 mm 3 m/S 753 mmHg 83%
05:00 +24°C° 0 mm 3 m/S 753 mmHg 83%
06:00 +25°C° 0 mm 3 m/S 753 mmHg 77%
07:00 +27°C° 0 mm 4 m/S 753 mmHg 71%
08:00 +29°C° 0 mm 4 m/S 753 mmHg 65%
09:00 +30°C° 0 mm 4 m/S 753 mmHg 62%
10:00 +32°C° 0 mm 4 m/S 753 mmHg 59%
11:00 +33°C° 0 mm 4 m/S 753 mmHg 56%
12:00 +34°C° 0 mm 4 m/S 752 mmHg 53%
13:00 +35°C° 0 mm 4 m/S 752 mmHg 50%
14:00 +35°C° 0 mm 4 m/S 752 mmHg 47%
15:00 +35°C° 0 mm 4 m/S 752 mmHg 52%
16:00 +34°C° 0 mm 4 m/S 752 mmHg 56%
17:00 +34°C° 0 mm 3 m/S 751 mmHg 60%
18:00 +31°C° 0 mm 3 m/S 751 mmHg 65%
19:00 +29°C° 0 mm 3 m/S 751 mmHg 70%
20:00 +27°C° 0 mm 3 m/S 751 mmHg 75%
21:00 +27°C° 0 mm 3 m/S 751 mmHg 76%
22:00 +26°C° 0 mm 2 m/S 751 mmHg 78%
23:00 +25°C° 0 mm 2 m/S 752 mmHg 79%

Morgen, 26 Juni, Samstag

Zeit Temperatur Niederschläge Wind Luftdruck Luftfeuchtigkeit
00:00 +25°C° 0 mm 2 m/S 751 mmHg 82%
01:00 +24°C° 0 mm 2 m/S 751 mmHg 84%
02:00 +24°C° 0 mm 3 m/S 751 mmHg 86%
03:00 +24°C° 0 mm 3 m/S 751 mmHg 86%
04:00 +24°C° 0 mm 3 m/S 751 mmHg 87%
05:00 +24°C° 0 mm 2 m/S 751 mmHg 87%
06:00 +26°C° 0 mm 3 m/S 751 mmHg 81%
07:00 +28°C° 0 mm 3 m/S 751 mmHg 74%
08:00 +29°C° 0 mm 4 m/S 751 mmHg 68%
09:00 +32°C° 0 mm 4 m/S 750 mmHg 64%
10:00 +33°C° 0 mm 4 m/S 750 mmHg 59%
11:00 +34°C° 0 mm 4 m/S 750 mmHg 55%
12:00 +34°C° 0 mm 4 m/S 750 mmHg 52%
13:00 +35°C° 0 mm 4 m/S 750 mmHg 50%
14:00 +35°C° 0 mm 4 m/S 750 mmHg 48%
15:00 +35°C° 0 mm 4 m/S 750 mmHg 51%
16:00 +34°C° 0 mm 4 m/S 749 mmHg 54%
17:00 +34°C° 0 mm 4 m/S 749 mmHg 58%
18:00 +31°C° 0 mm 3 m/S 749 mmHg 65%
19:00 +29°C° 0 mm 3 m/S 749 mmHg 71%
20:00 +27°C° 0 mm 3 m/S 749 mmHg 78%
21:00 +27°C° 0.3 mm 3 m/S 749 mmHg 80%
22:00 +26°C° 0.3 mm 2 m/S 749 mmHg 82%
23:00 +25°C° 0.3 mm 2 m/S 749 mmHg 84%

übermorgen, 27 Juni, Sonntag

Zeit Temperatur Niederschläge Wind Luftdruck Luftfeuchtigkeit
00:00 +24°C° 0.5 mm 2 m/S 749 mmHg 87%
01:00 +22°C° 0.5 mm 3 m/S 749 mmHg 89%
02:00 +22°C° 0.5 mm 3 m/S 749 mmHg 92%
03:00 +22°C° 0 mm 3 m/S 749 mmHg 92%
04:00 +22°C° 0 mm 3 m/S 749 mmHg 92%
05:00 +22°C° 0 mm 4 m/S 749 mmHg 93%
06:00 +25°C° 0 mm 3 m/S 748 mmHg 85%
07:00 +26°C° 0 mm 3 m/S 748 mmHg 78%
08:00 +28°C° 0 mm 3 m/S 748 mmHg 71%
09:00 +29°C° 0 mm 2 m/S 748 mmHg 66%
10:00 +31°C° 0 mm 2 m/S 748 mmHg 62%
11:00 +32°C° 0 mm 2 m/S 748 mmHg 58%
12:00 +32°C° 0.1 mm 2 m/S 748 mmHg 56%
13:00 +34°C° 0.1 mm 2 m/S 748 mmHg 54%
14:00 +34°C° 0.1 mm 1 m/S 748 mmHg 52%
15:00 +34°C° 0.1 mm 2 m/S 748 mmHg 56%
16:00 +33°C° 0.1 mm 3 m/S 748 mmHg 60%
17:00 +32°C° 0.1 mm 4 m/S 747 mmHg 65%
18:00 +29°C° 2.5 mm 3 m/S 748 mmHg 75%
19:00 +26°C° 2.5 mm 3 m/S 748 mmHg 84%
20:00 +22°C° 2.5 mm 3 m/S 748 mmHg 94%
21:00 +22°C° 3.1 mm 3 m/S 748 mmHg 92%
22:00 +21°C° 3.1 mm 3 m/S 748 mmHg 89%
23:00 +21°C° 3.1 mm 3 m/S 748 mmHg 87%

28 Juni, Montag

Zeit Temperatur Niederschläge Wind Luftdruck Luftfeuchtigkeit
00:00 +21°C° 0.1 mm 3 m/S 748 mmHg 89%
01:00 +21°C° 0.1 mm 2 m/S 748 mmHg 91%
02:00 +21°C° 0.1 mm 2 m/S 748 mmHg 94%
03:00 +21°C° 0.5 mm 2 m/S 748 mmHg 95%
04:00 +21°C° 0.5 mm 2 m/S 748 mmHg 95%
05:00 +21°C° 0.5 mm 3 m/S 748 mmHg 96%
06:00 +21°C° 0.2 mm 3 m/S 748 mmHg 94%
07:00 +21°C° 0.2 mm 3 m/S 749 mmHg 92%
08:00 +21°C° 0.2 mm 4 m/S 749 mmHg 90%
09:00 +21°C° 0.2 mm 4 m/S 749 mmHg 90%
10:00 +21°C° 0.2 mm 4 m/S 749 mmHg 89%
11:00 +21°C° 0.2 mm 4 m/S 750 mmHg 89%
12:00 +22°C° 0.2 mm 4 m/S 750 mmHg 87%
13:00 +22°C° 0.2 mm 4 m/S 750 mmHg 85%
14:00 +23°C° 0.2 mm 4 m/S 750 mmHg 84%
15:00 +23°C° 0.3 mm 4 m/S 750 mmHg 85%
16:00 +22°C° 0.3 mm 5 m/S 750 mmHg 87%
17:00 +22°C° 0.3 mm 5 m/S 750 mmHg 89%
18:00 +21°C° 0.2 mm 5 m/S 750 mmHg 91%
19:00 +21°C° 0.2 mm 5 m/S 750 mmHg 93%
20:00 +20°C° 0.2 mm 5 m/S 750 mmHg 95%
21:00 +20°C° 0.1 mm 5 m/S 750 mmHg 95%
22:00 +19°C° 0.1 mm 4 m/S 750 mmHg 94%
23:00 +19°C° 0.1 mm 4 m/S 750 mmHg 94%

29 Juni, Dienstag

Zeit Temperatur Niederschläge Wind Luftdruck Luftfeuchtigkeit
00:00 +19°C° 0 mm 4 m/S 750 mmHg 94%
01:00 +19°C° 0 mm 4 m/S 750 mmHg 94%
02:00 +18°C° 0 mm 4 m/S 750 mmHg 95%
03:00 +18°C° 0 mm 3 m/S 750 mmHg 95%
04:00 +18°C° 0 mm 3 m/S 750 mmHg 95%
05:00 +18°C° 0 mm 3 m/S 750 mmHg 95%
06:00 +19°C° 0 mm 3 m/S 750 mmHg 88%
07:00 +21°C° 0 mm 4 m/S 750 mmHg 81%
08:00 +22°C° 0 mm 4 m/S 750 mmHg 74%
09:00 +23°C° 0 mm 5 m/S 750 mmHg 68%
10:00 +25°C° 0 mm 5 m/S 750 mmHg 62%
11:00 +26°C° 0 mm 6 m/S 750 mmHg 56%
12:00 +26°C° 0 mm 6 m/S 750 mmHg 55%
13:00 +27°C° 0 mm 6 m/S 750 mmHg 53%
14:00 +27°C° 0 mm 6 m/S 750 mmHg 52%
15:00 +26°C° 0.1 mm 5 m/S 750 mmHg 57%
16:00 +25°C° 0.1 mm 4 m/S 750 mmHg 63%
17:00 +23°C° 0.1 mm 4 m/S 750 mmHg 69%
18:00 +22°C° 0.2 mm 4 m/S 750 mmHg 74%
19:00 +21°C° 0.2 mm 3 m/S 750 mmHg 78%
20:00 +19°C° 0.2 mm 3 m/S 750 mmHg 83%
21:00 +19°C° 0 mm 3 m/S 750 mmHg 85%
22:00 +18°C° 0 mm 3 m/S 750 mmHg 87%
23:00 +18°C° 0 mm 3 m/S 750 mmHg 89%

30 Juni, Mittwoch

Zeit Temperatur Niederschläge Wind Luftdruck Luftfeuchtigkeit
00:00 +18°C° 0 mm 3 m/S 750 mmHg 89%
01:00 +18°C° 0 mm 3 m/S 750 mmHg 89%
02:00 +18°C° 0 mm 3 m/S 750 mmHg 89%
03:00 +18°C° 0.2 mm 2 m/S 750 mmHg 89%
04:00 +18°C° 0.2 mm 2 m/S 749 mmHg 90%
05:00 +18°C° 0.2 mm 2 m/S 749 mmHg 91%
06:00 +19°C° 0.4 mm 3 m/S 749 mmHg 87%
07:00 +20°C° 0.4 mm 3 m/S 749 mmHg 83%
08:00 +21°C° 0.4 mm 4 m/S 749 mmHg 79%
09:00 +21°C° 0.4 mm 3 m/S 749 mmHg 80%
10:00 +21°C° 0.4 mm 3 m/S 749 mmHg 81%
11:00 +21°C° 0.4 mm 2 m/S 749 mmHg 82%
12:00 +22°C° 0.1 mm 3 m/S 749 mmHg 76%
13:00 +23°C° 0.1 mm 4 m/S 749 mmHg 69%
14:00 +26°C° 0.1 mm 5 m/S 749 mmHg 63%
15:00 +25°C° 0.2 mm 5 m/S 749 mmHg 66%
16:00 +25°C° 0.2 mm 5 m/S 749 mmHg 68%
17:00 +25°C° 0.2 mm 4 m/S 749 mmHg 71%
18:00 +23°C° 0 mm 4 m/S 749 mmHg 74%
19:00 +21°C° 0 mm 3 m/S 749 mmHg 78%
20:00 +20°C° 0 mm 2 m/S 749 mmHg 81%
21:00 +20°C° 0 mm 3 m/S 749 mmHg 81%
22:00 +19°C° 0 mm 3 m/S 749 mmHg 82%
23:00 +19°C° 0 mm 3 m/S 749 mmHg 83%
Mehr zeigen

Wir brauchen deine Erlaubnis

Meteoprog und unser Service Anbieter werden persönliche Daten aufbewahren, so wie Cookies, Geräte Bezeichnung oder ähnliche Technologien von deinem Gerät und Prozess, so wie Persönliche Daten Inhalte und Werbungen, genauso wie social Media und den Verkehr zu analysieren.

  • Aufbewahrung und/oder Zugang zu deiner Geräte Informationen.

    Cookies, Geräte Bezeichnung oder andere Informationen, können aufbewahrt oder Zugang zu deinem Gerät erhalten, für den Grund, der oben angegeben wird.

  • Personalisierte Werbung und Inhalte, Messungen, Einblick in das Publikum und Produkt Entwicklung.

    Werbungen und Inhalte können personalisiert werden, basierend auf ein Profil. Mehr Daten können besser personalisierte Werbungen und Inhalte hinzufügen. Werbung und Inhalte können gezeigt und gemessen werden. Einblicke über das Publikum, welche die Werbung gesehen haben und den Inhalt, können abgeleitet werden. So wie Daten können genutzt werden, um es zu verbessern oder die Benutzer Erfahrung zu verbessern das System und die Software.

Wenn du “Ich stimme zu” klickst, erlaubst du uns, die Cookies zu benutzen die Geräte Bezeichnung, den Web oder ähnliche Technologien zu benutzen. Deine Settings, können in deinem Gerät bei deinem Browser geändert werden.

Für den bestimmten Zweck, berechtigten Interessen beruhen darauf, mehr als auf den Inhalt. Du kannst mehr darüber in unseren Privaten und Cookie Politik lesen.